This is the latest recevied weather packets stored in our database for station/object W1SCW. If no packets are shown the sender has not sent any weather packets the latest 1 day(s).
| Time | Temp. | Humidity | Pressure | Rain* | Wind** | Luminosity | Snow |
|---|---|---|---|---|---|---|---|
| 1778037590 | 25.56° C | 87% | 1007 hPa | 0 mm | 1.79 m/s, 190° | 0 W/m² | - |
| 1778037288 | 25.56° C | 87% | 1007 hPa | 0 mm | 0.89 m/s, 166° | 0 W/m² | - |
| 1778036986 | 25.56° C | 87% | 1006.7 hPa | 0 mm | 1.34 m/s, 161° | 0 W/m² | - |
| 1778036684 | 25.56° C | 87% | 1007 hPa | 0 mm | 1.34 m/s, 180° | 0 W/m² | - |
| 1778036380 | 25.56° C | 86% | 1006.8 hPa | 0 mm | 0.89 m/s, 152° | 0 W/m² | - |
| 1778036077 | 25.56° C | 86% | 1006.9 hPa | 0 mm | 0.45 m/s, 35° | 0 W/m² | - |
| 1778035774 | 25.56° C | 86% | 1006.9 hPa | 0 mm | 1.79 m/s, 157° | 0 W/m² | - |
| 1778035471 | 25.56° C | 86% | 1006.9 hPa | 0 mm | 1.79 m/s, 158° | 0 W/m² | - |
| 1778035166 | 25.56° C | 86% | 1006.7 hPa | 0 mm | 1.34 m/s, 96° | 0 W/m² | - |
| 1778034863 | 26.11° C | 86% | 1006.6 hPa | 0 mm | 2.24 m/s, 118° | 0 W/m² | - |
| 1778034560 | 26.11° C | 86% | 1006.3 hPa | 0 mm | 1.34 m/s, 179° | 0 W/m² | - |
| 1778034258 | 26.11° C | 85% | 1006.2 hPa | 0 mm | 2.24 m/s, 189° | 0 W/m² | - |
| 1778033956 | 26.11° C | 85% | 1006.1 hPa | 0 mm | 1.79 m/s, 177° | 0 W/m² | - |
| 1778033653 | 26.11° C | 84% | 1006.5 hPa | 0 mm | 0.45 m/s, 186° | 0 W/m² | - |
| 1778033349 | 26.11° C | 84% | 1006.2 hPa | 0 mm | 0 m/s | 0 W/m² | - |
| 1778033048 | 26.11° C | 84% | 1006.3 hPa | 0 mm | 1.34 m/s, 140° | 0 W/m² | - |
| 1778032744 | 26.11° C | 84% | 1006 hPa | 0 mm | 1.34 m/s, 136° | 0 W/m² | - |
| 1778032442 | 26.11° C | 83% | 1006.3 hPa | 0 mm | 1.34 m/s, 184° | 0 W/m² | - |
| 1778032138 | 26.11° C | 83% | 1005.9 hPa | 0 mm | 1.79 m/s, 165° | 0 W/m² | - |
| 1778031835 | 26.11° C | 83% | 1006.2 hPa | 0 mm | 0.89 m/s, 169° | 0 W/m² | - |
| 1778031532 | 26.11° C | 83% | 1005.9 hPa | 0 mm | 1.34 m/s, 148° | 0 W/m² | - |
| 1778031230 | 26.11° C | 82% | 1005.9 hPa | 0 mm | 0.89 m/s, 150° | 0 W/m² | - |
| 1778030926 | 26.67° C | 82% | 1005.8 hPa | 0 mm | 1.34 m/s, 174° | 0 W/m² | - |
| 1778030623 | 26.67° C | 82% | 1005.7 hPa | 0 mm | 1.34 m/s, 180° | 0 W/m² | - |
| 1778030320 | 26.67° C | 82% | 1005.8 hPa | 0 mm | 0 m/s | 0 W/m² | - |
* Rain latest hour (hover to see other rain measurements)
** Current wind speed in m/s (hover to see current wind gust speed)